Location: Diebersbach
(48.5163°N, 8.0558°E)
Time: 19:33:30
(UTC+00:00)

Cosmos 1825 - Pass Details

Date: 02 November 2021
Orbit: 501 x 504 km, 82.5° (Epoch: 01 December)

Event Time Altitude Azimuth Distance (km) Brightness Sun altitude
Rises 16:39:06 0° 360° (N) 2,612 5.6 -6.0°
Reaches altitude 10° 16:41:29 10° 13° (NNE) 1,723 4.6 -6.3°
Maximum altitude 16:44:42 26° 72° (ENE) 1,013 3.1 -6.8°
Drops below altitude 10° 16:47:55 10° 131° (SE) 1,712 4.5 -7.4°
Sets 16:50:16 0° 144° (SE) 2,592 5.5 -7.7°
